Regional Weather Roundup
Issued by NWS Newport/Morehead, NC

Current Version | Previous Version | Graphics & Text | Print | Product List | Glossary Off
Versions: 1 2 3 4 5 6 7 8 9 10 11 12 13 14 15 16 17 18 19 20 21 22 23 24 25 26 27 28 29 30 31 32 33 34 35 36 37 38 39 40 41 42 43 44 45 46 47 48 49 50

000
ASUS42 KMHX 240614
RWRMHX
WEATHER ROUNDUP FOR EASTERN NORTH CAROLINA
NATIONAL WEATHER SERVICE NEWPORT/MOREHEAD CITY NC
200 AM EDT THU MAY 24 2018

NOTE: "FAIR" INDICATES FEW OR NO CLOUDS BELOW 12,000 FEET
WITH NO SIGNIFICANT WEATHER AND/OR OBSTRUCTIONS TO VISIBILITY

NCZ015>017-031-032-045>047-102-103-240700-
NORTH COAST

CITY           SKY/WX    TMP DP  RH WIND       PRES   REMARKS
EDENTON        FAIR      69  68  97 CALM      30.09S
ELIZABETH CITY FAIR      68  68 100 CALM      30.08R FOG
KITTY HAWK     FAIR      70  70 100 CALM      30.06R
MANTEO         FAIR      67  66  98 CALM      30.08S

$$

NCZ045>047-081-094-103-104-240700-
CENTRAL COAST

CITY           SKY/WX    TMP DP  RH WIND       PRES   REMARKS
FRISCO         FAIR      69  68  96 W6        30.08R

$$

NCZ095-097-098-100-101-240700-
SOUTHERN COAST

CITY           SKY/WX    TMP DP  RH WIND       PRES   REMARKS
BEAUFORT       CLOUDY    69  69 100 SW5       30.09F
CEDAR ISLAND   NOT AVBL
JACKSONVILLE   CLOUDY    73  70  90 CALM      30.08R
PINEY ISLAND   NOT AVBL
WILMINGTON     MOCLDY    74  67  78 SW7       30.07F


$$

NCZ011>013-027>030-043-044-078>080-089-090>093-098-240700-
COASTAL PLAIN

CITY           SKY/WX    TMP DP  RH WIND       PRES   REMARKS
AHOSKIE        MOCLDY    68  68 100 CALM      30.10R
CLINTON        FAIR      72  72 100 CALM      30.08S
ELIZABETHTOWN  CLOUDY    73  70  89 SW7       30.08S
GOLDSBORO      FAIR      71  70  95 CALM      30.06S
GREENVILLE     MOCLDY    72  70  94 E3        30.10R
HAVELOCK       NOT AVBL
KENANSVILLE    FAIR      70  68  94 CALM      30.08S FOG
KINSTON        FAIR      71  70  97 SW3       30.08S
NEW BERN       CLOUDY    69  68  96 S6        30.09S
RICHLANDS      CLOUDY    72  72 100 NE3       30.09R
ROCKY MOUNT    MOCLDY    70  69  97 N5        30.08S
WASHINGTON     CLOUDY    68  68  98 CALM      30.09S
WHITEVILLE     FAIR      71  69  92 CALM      30.08S

$$

AMZ130-135-150-152-154-156-158-170-250-252-270-ANZ085-086-088-633-658-670-240700-
MARINE OBSERVATIONS

STATION/POSITION TIME  TEMP    WIND        PRES    WAVE   SWELL
                       AIR SEA DIR/SP/G            HT/PER HT/PER
                 (UTC) (F)     (DEG/KT/KT) (MB)    (FT/S) (FT/S)
CHESAPEAKE LIGHT NOT AVBL
64 E VA BEACH    0550   69 68  300/  8/  8 1017.8    3/ 8   3/ 8
DUCK             0542   72 67  320/  6/  7 1017.9
2 E DUCK         0600      67                N/A     1/ 8
OREGON INLET     0542   71 79  270/  4/  5 1018.1
13E OREGON INLT  0548      69                N/A     3/ 6   3/ 6
HATTERAS CG      0542   71 76  250/  5/  8 1018.1
DIAMOND BUOY     0550   74 74  250/ 12/ 14 1018.2    4/ 6   2/ 6
CAPE LOOKOUT     0600          230/  7/ 10 1019.2
BEAUFORT LAB     0542   69 78  220/  4/  8 1019.1
30 SE NEW RVR IN 0508   76     250/ 10/ 12 1019.1
30 SE NEW RVR IN 0600      76                N/A     4/ 5
27 SE WRIGHTSVLE 0508   75 75  240/ 14/ 21 1018.8
5 SE WRIGHTSVLE  0508   73 73  320/  8/ 12 1018.0
225 S CAPE HAT   0550      78  210/ 10/ 12 1019.2    3/ 8   3/ 8
41 SE CHARLESTON 0550      75  200/  4/  6 1018.6    3/ 9   3/ 9

$$



USA.gov is the U.S. government's official web portal to all federal, state and local government web resources and services.